Tracking 21496 objects as of 1-Oct-2020
HD Live streaming from Space Station
objects crossing your sky now

ANIK A2 (TELESAT 2)

Track ANIK A2 (TELESAT 2) now!
ANIK A2 (TELESAT 2) is classified as:


NORAD ID: 6437
Int'l Code: 1973-023A
Perigee: 35,878.1 km
Apogee: 35,972.5 km
Inclination: 11.6 °
Period: 1,442.8 minutes
Semi major axis: 42296 km
RCS: 3.1458 m2 (large)
Launch date: April 20, 1973
Source: Canada (CA)
Launch site: AIR FORCE EASTERN TEST RANGE (AFETR)
aabbcc
Your satellite tracking list
Your tracking list is empty




NASA's NSSDC Master Catalog

Two Line Element Set (TLE):
1  6437U 73023A   20273.92202054 -.00000264 +00000-0 +00000-0 0  9996
2  6437 011.5909 316.3111 0011167 021.1241 337.0012 00.99804284026323
Source of the keplerian elements: AFSPC